Regional Weather Roundup
Issued by NWS Green Bay, WI

Home | Current Version | Previous Version | Graphics & Text | Print | Product List | Glossary Off
Versions: 1 2 3 4 5 6 7 8 9 10 11 12 13 14 15 16 17 18 19 20 21 22 23 24 25 26 27 28 29 30 31 32 33 34 35 36 37 38 39 40 41 42 43 44 45 46 47 48 49 50

000
ASUS43 KGRB 290259
RWRGRB

NORTH-CENTRAL AND NORTHEAST WISCONSIN REGIONAL WEATHER ROUNDUP
NATIONAL WEATHER SERVICE GREEN BAY WI
900 PM CST SUN DEC 28 2014

WIZ005-009-010>012-018-019-290400-
NORTH CENTRAL WISCONSIN

CITY           SKY/WX    TMP DP  RH WIND       PRES   REMARKS
IRONWOOD       CLOUDY     9   3  78 W9        30.22S WCI  -5
MANITOWISH WTR NOT AVBL
ARBOR VITAE    NOT AVBL
EAGLE RIVER    NOT AVBL
LAND O LAKES   NOT AVBL
RHINELANDER    CLEAR      3   1  91 CALM      30.20F
PHILLIPS       CLEAR     -5  -8  86 CALM      30.23S
ANTIGO         NOT AVBL
TOMAHAWK       NOT AVBL
MERRILL        NOT AVBL
$$

WIZ013-073-290400-
NORTHEAST WISCONSIN

CITY           SKY/WX    TMP DP  RH WIND       PRES   REMARKS
IRON MOUNTAIN    N/A      1  -2  87 NW5       30.20S WCI  -9
MARINETTE      CLEAR     16   5  62 N10G17    30.25R WCI   3
$$

WIZ017-030-035>037-045-290400-
CENTRAL WISCONSIN

CITY           SKY/WX    TMP DP  RH WIND       PRES   REMARKS
MEDFORD        NOT AVBL
WAUSAU         CLEAR     10   6  84 N3        30.23R
MOSINEE        NOT AVBL
MARSHFIELD     CLEAR      7   4  87 NW6       30.24R FOG     WCI  -3
WISC RAPIDS    CLEAR     16  11  80 NW6       30.27R WCI   7
STEVENS POINT  NOT AVBL
WAUPACA        NOT AVBL
SHAWANO        NOT AVBL
CLINTONVILLE   CLEAR     21  14  73 NW6       30.25R
$$

WIZ038-039-048-051-290400-
FOX VALLEY

CITY           SKY/WX    TMP DP  RH WIND       PRES   REMARKS
NWS GREEN BAY  CLEAR     22  15  75 N6        30.25R
APPLETON       MOCLDY    21  14  73 N9        30.23R
OSHKOSH        CLOUDY    25  17  72 N8        30.24R
FOND DU LAC    CLOUDY    26  18  71 N9        30.24R
$$

WIZ022-050-052-290400-
EAST CENTRAL WISCONSIN

CITY           SKY/WX    TMP DP  RH WIND       PRES   REMARKS
STURGEON BAY   PTCLDY    19  10  68 N13       30.25R WCI   7
MANITOWOC      NOT AVBL
SHEBOYGAN      CLOUDY    27  20  75 N7        30.23R
$$

LMZ563-521-522-541>543-290400-
LAKESHORE

STATION/POSITION TIME  TEMP    WIND        PRES    VSBY  WAVE
                       AIR SEA DIR/SP/G                  HT/PER
                 (UTC) (F)     (DEG/KT/KT) (MB)    (MI)  (FT/S)
SHEBOYGAN LKSHOR 0200   28 36  330/  7/  8 1024.4R
KEWAUNEE LKSHORE 0200   23     340/  8/ 12 1022.7R
ALGOMA MARINA    0200          340/ 12/ 16   N/A
NORTHPORT PIER   0200   20     320/ 17/ 22 1024.0R
SISTER BAY LKSHO 0200          340/ 22/ 26   N/A
CHAMBERS ISLAND  0200   20     310/ 16/ 19 1024.0R
MENOMINEE LKSHOR 0200   20     310/ 14/ 18 1024.9R
$$


USA.gov is the U.S. government's official web portal to all federal, state and local government web resources and services.